                ,  0.721,  0.869,  1.017,  1.165,  1.312,  1.460,  1.608,  1.756,  1.904,  2.052,  2.199,  2.347,  2.495,  2.643,  2.791,  2.938,  3.086,  3.234,  3.382,  3.530,  3.677,  3.825,  3.973,  4.121,  4.269,  4.417,  4.564,  4.712,  4.860,  5.008,  5.156,  5.303
1999/08/14 00:00,  999.0,  999.0,  999.0,  999.0,  999.0,  999.0,  999.0,  999.0,  999.0,  999.0,  999.0,  999.0,  999.0,  999.0,  999.0,  999.0,  999.0,  999.0,  999.0,  999.0,  999.0,  999.0,  999.0,  999.0,  999.0,  999.0,  999.0,  999.0,  999.0,  999.0,  999.0,  999.0
1999/08/14 00:10,   -7.7,   -5.4,  999.0,  999.0,   -1.1,  999.0,   -3.6,   -2.4,  999.0,  999.0,  999.0,  999.0,   -0.1,  999.0,    0.1,   -1.3,   -1.9,   -1.1,  999.0,  999.0,  999.0,   -1.7,  999.0,  999.0,  999.0,  999.0,  999.0,  999.0,  999.0,  999.0,  999.0,   -2.3
1999/08/14 00:20,   -7.2,   -6.8,   -2.3,   -1.1,   -1.4,  999.0,  999.0,   -3.0,   -1.7,  999.0,  999.0,   -0.9,    0.0,    0.0,    0.2,   -0.9,   -1.0,   -1.6,  999.0,  999.0,  999.0,   -1.2,  999.0,  999.0,  999.0,  999.0,  999.0,  999.0,  999.0,   -2.6,  999.0,   -2.4
1999/08/14 00:30,   -6.2,   -6.7,  999.0,   -1.4,  999.0,   -3.5,  999.0,   -2.8,   -1.5,  999.0,  999.0,   -0.7,  999.0,    0.5,   -0.7,  999.0,  999.0,   -1.3,  999.0,  999.0,  999.0,   -2.6,  999.0,  999.0,  999.0,  999.0,  999.0,  999.0,  999.0,  999.0,  999.0,   -2.3
1999/08/14 00:40,  999.0,   -6.9,   -3.3,  999.0,  999.0,  999.0,   -3.3,   -2.1,   -1.3,   -1.0,   -1.7,   -1.0,   -0.2,    0.6,   -0.5,  999.0,   -1.9,   -0.8,  999.0,  999.0,  999.0,  999.0,  999.0,  999.0,  999.0,  999.0,   -0.9,  999.0,  999.0,  999.0,  999.0,   -2.3
1999/08/14 00:50,  999.0,  999.0,   -3.8,  999.0,  999.0,   -4.0,  999.0,  999.0,   -1.8,  999.0,   -2.7,   -1.0,   -0.4,  999.0,   -0.3,  999.0,   -1.8,  999.0,  999.0,  999.0,  999.0,   -1.6,  999.0,  999.0,  999.0,  999.0,  999.0,  999.0,  999.0,  999.0,  999.0,  999.0
1999/08/14 01:00,   -4.6,   -6.4,   -4.0,   -2.6,  999.0,  999.0,   -3.6,  999.0,  999.0,  999.0,   -1.5,   -1.2,  999.0,   -0.1,  999.0,  999.0,  999.0,  999.0,  999.0,  999.0,   -2.6,   -2.8,   -0.4,  999.0,  999.0,  999.0,   -0.9,  999.0,  999.0,  999.0,  999.0,   -2.9
1999/08/14 01:10,   -5.1,   -5.9,   -4.7,  999.0,  999.0,  999.0,  999.0,  999.0,   -1.8,  999.0,  999.0,  999.0,  999.0,  999.0,  999.0,  999.0,  999.0,    0.1,  999.0,  999.0,   -2.6,   -2.3,  999.0,  999.0,  999.0,  999.0,  999.0,  999.0,  999.0,  999.0,  999.0,   -2.5
1999/08/14 01:20,   -4.6,  999.0,  999.0,   -3.2,   -3.8,   -4.8,   -4.4,  999.0,   -2.1,  999.0,  999.0,   -2.1,   -0.3,   -0.1,   -0.0,  999.0,  999.0,  999.0,  999.0,  999.0,   -2.7,   -2.0,   -0.8,  999.0,  999.0,  999.0,  999.0,  999.0,   -1.7,  999.0,  999.0,   -2.7
1999/08/14 01:30,  999.0,   -4.7,   -5.7,   -4.0,   -4.3,  999.0,   -4.8,  999.0,   -1.4,  999.0,  999.0,   -1.6,  999.0,    0.1,  999.0,  999.0,   -2.4,   -1.6,  999.0,  999.0,  999.0,   -1.6,   -1.2,  999.0,  999.0,  999.0,  999.0,  999.0,  999.0,  999.0,   -2.5,   -2.2
1999/08/14 01:40,   -3.6,  999.0,  999.0,   -5.4,   -4.1,  999.0,   -4.3,  999.0,  999.0,  999.0,  999.0,   -1.1,   -0.2,  999.0,  999.0,  999.0,  999.0,   -1.3,  999.0,  999.0,  999.0,   -1.2,   -1.1,  999.0,  999.0,  999.0,  999.0,  999.0,  999.0,  999.0,  999.0,  999.0
1999/08/14 01:50,   -4.6,   -5.7,   -6.0,   -6.0,   -4.0,   -4.7,   -3.9,   -2.1,  999.0,   -1.2,  999.0,   -1.3,   -0.1,    0.0,   -0.1,   -1.0,   -1.4,   -1.2,   -1.2,  999.0,  999.0,   -1.4,   -1.2,   -1.7,  999.0,  999.0,  999.0,  999.0,  999.0,  999.0,  999.0,   -2.0
1999/08/14 02:00,   -5.0,   -6.6,   -5.8,   -5.7,   -4.9,   -4.7,   -4.3,   -2.2,   -0.7,   -1.0,   -1.6,   -1.4,   -0.2,  999.0,  999.0,  999.0,   -1.5,  999.0,  999.0,  999.0,  999.0,  999.0,  999.0,  999.0,  999.0,  999.0,  999.0,  999.0,  999.0,  999.0,  999.0,   -2.1
1999/08/14 02:10,   -6.2,  999.0,   -5.0,   -5.4,   -5.0,   -4.3,  999.0,   -2.0,  999.0,  999.0,   -1.2,   -1.3,   -0.8,   -0.5,   -0.5,  999.0,  999.0,  999.0,  999.0,  999.0,  999.0,  999.0,   -1.2,   -1.5,  999.0,  999.0,  999.0,  999.0,  999.0,  999.0,  999.0,  999.0
1999/08/14 02:20,   -7.9,   -7.6,   -5.2,   -5.6,   -4.9,   -4.5,   -4.4,   -2.3,  999.0,   -0.7,  999.0,  999.0,  999.0,   -0.3,   -1.3,  999.0,  999.0,  999.0,  999.0,  999.0,  999.0,   -1.1,   -0.8,  999.0,  999.0,  999.0,  999.0,  999.0,   -1.4,  999.0,   -2.3,  999.0
1999/08/14 02:30,   -8.3,   -6.9,   -5.0,   -5.3,   -4.9,   -4.7,   -4.4,   -4.9,   -1.5,   -1.0,  999.0,  999.0,   -1.2,  999.0,   -1.1,   -1.5,  999.0,  999.0,  999.0,  999.0,  999.0,  999.0,  999.0,   -1.3,  999.0,  999.0,  999.0,  999.0,  999.0,  999.0,  999.0,  999.0
1999/08/14 02:40,   -8.0,   -6.6,   -4.2,   -5.4,   -5.8,   -5.6,   -5.5,   -5.7,   -3.6,   -1.9,  999.0,  999.0,  999.0,  999.0,   -0.9,  999.0,  999.0,  999.0,  999.0,  999.0,  999.0,  999.0,  999.0,   -1.2,  999.0,  999.0,  999.0,  999.0,  999.0,  999.0,   -1.4,  999.0
1999/08/14 02:50,   -8.5,   -6.5,   -4.9,   -5.2,   -5.2,   -5.2,   -4.9,   -5.4,   -4.2,  999.0,  999.0,   -1.5,  999.0,   -0.1,   -1.1,   -1.2,  999.0,  999.0,  999.0,   -1.5,  999.0,  999.0,   -1.8,   -1.5,  999.0,  999.0,  999.0,  999.0,   -0.5,  999.0,  999.0,  999.0
1999/08/14 03:00,   -8.4,   -6.9,   -5.2,   -5.6,   -5.5,   -5.0,   -5.3,   -5.1,   -3.9,  999.0,  999.0,  999.0,    0.2,    0.3,    0.1,  999.0,   -1.0,  999.0,  999.0,  999.0,  999.0,  999.0,   -1.9,   -3.1,  999.0,  999.0,  999.0,  999.0,  999.0,  999.0,  999.0,   -1.4
1999/08/14 03:10,   -8.4,  999.0,   -5.7,   -4.8,  999.0,  999.0,   -5.2,  999.0,  999.0,  999.0,   -2.2,  999.0,   -0.8,  999.0,   -0.7,   -1.5,   -2.4,  999.0,  999.0,  999.0,  999.0,  999.0,   -0.8,  999.0,  999.0,  999.0,  999.0,  999.0,  999.0,  999.0,  999.0,   -1.9
1999/08/14 03:20,   -8.6,   -7.4,   -6.0,   -5.3,   -5.4,   -5.3,   -5.4,   -4.9,  999.0,  999.0,  999.0,  999.0,  999.0,    0.1,  999.0,   -0.6,  999.0,  999.0,  999.0,  999.0,  999.0,  999.0,   -2.4,   -2.3,  999.0,  999.0,  999.0,  999.0,  999.0,  999.0,  999.0,  999.0
1999/08/14 03:30,   -8.4,   -6.9,   -5.8,   -5.6,  999.0,   -5.1,   -5.1,   -5.8,   -4.5,   -3.2,  999.0,   -2.1,  999.0,   -0.6,   -1.1,  999.0,   -1.1,   -0.9,  999.0,  999.0,  999.0,   -1.4,   -0.9,  999.0,  999.0,  999.0,  999.0,  999.0,  999.0,  999.0,  999.0,  999.0
1999/08/14 03:40,   -8.8,   -7.6,   -6.0,   -5.5,  999.0,  999.0,  999.0,  999.0,   -5.1,   -3.9,   -2.5,  999.0,   -2.2,   -2.7,  999.0,   -2.5,  999.0,   -1.6,  999.0,  999.0,  999.0,   -1.7,   -1.9,  999.0,  999.0,  999.0,  999.0,  999.0,  999.0,  999.0,  999.0,  999.0
1999/08/14 03:50,   -8.2,   -7.9,   -6.0,  999.0,  999.0,   -5.7,   -4.8,   -4.7,  999.0,   -3.5,   -1.6,  999.0,   -2.2,   -2.3,  999.0,  999.0,  999.0,   -1.9,  999.0,  999.0,  999.0,   -0.8,   -1.1,  999.0,  999.0,  999.0,  999.0,  999.0,  999.0,  999.0,  999.0,  999.0
1999/08/14 04:00,   -6.7,   -8.7,   -6.7,  999.0,   -5.4,   -5.9,   -4.7,   -4.9,   -3.9,  999.0,  999.0,   -3.2,   -2.4,   -2.6,   -2.4,   -2.8,   -2.1,  999.0,  999.0,  999.0,  999.0,   -0.7,  999.0,  999.0,  999.0,  999.0,  999.0,  999.0,  999.0,  999.0,  999.0,  999.0
1999/08/14 04:10,   -6.4,   -8.8,   -7.3,   -6.7,  999.0,   -7.0,   -5.3,  999.0,   -4.7,   -4.0,  999.0,  999.0,   -2.2,   -1.8,   -1.5,  999.0,  999.0,  999.0,  999.0,  999.0,   -0.8,   -0.8,   -1.4,  999.0,  999.0,  999.0,  999.0,  999.0,  999.0,  999.0,  999.0,  999.0
1999/08/14 04:20,  999.0,   -9.3,   -6.9,   -5.8,   -6.2,   -7.2,   -5.5,   -4.8,  999.0,  999.0,  999.0,  999.0,  999.0,  999.0,   -1.0,  999.0,   -1.7,   -2.0,   -2.4,  999.0,   -1.6,  999.0,   -1.6,  999.0,  999.0,  999.0,  999.0,  999.0,   -3.4,  999.0,  999.0,  999.0
1999/08/14 04:30,   -6.8,   -9.5,   -8.8,   -6.4,   -6.1,   -6.7,   -6.2,   -4.8,   -4.7,  999.0,   -3.7,   -3.9,  999.0,  999.0,  999.0,  999.0,   -1.6,   -1.8,   -2.2,  999.0,  999.0,  999.0,   -1.2,  999.0,  999.0,  999.0,  999.0,  999.0,  999.0,  999.0,  999.0,  999.0
1999/08/14 04:40,   -7.3,   -9.5,   -8.9,   -6.6,   -4.9,   -6.6,   -7.3,   -5.2,   -4.7,   -4.0,   -3.7,  999.0,   -4.3,   -3.8,  999.0,  999.0,  999.0,   -2.7,   -3.0,  999.0,   -1.1,   -1.2,   -0.9,   -1.0,  999.0,  999.0,  999.0,  999.0,  999.0,  999.0,   -3.4,  999.0
1999/08/14 04:50,   -7.4,   -9.7,   -8.4,   -6.8,   -5.8,   -6.1,   -7.5,   -6.8,   -5.9,  999.0,   -3.7,   -4.0,   -4.4,   -3.6,   -2.6,  999.0,  999.0,  999.0,  999.0,   -1.6,  999.0,  999.0,   -1.4,  999.0,  999.0,  999.0,  999.0,  999.0,  999.0,  999.0,   -3.4,  999.0
1999/08/14 05:00,   -9.4,   -9.6,  999.0,   -6.9,   -4.8,   -5.6,   -7.1,  999.0,   -7.0,   -7.0,   -4.0,  999.0,  999.0,   -4.0,  999.0,  999.0,  999.0,  999.0,  999.0,  999.0,  999.0,  999.0,   -2.5,  999.0,  999.0,  999.0,  999.0,  999.0,   -3.0,  999.0,  999.0,  999.0
1999/08/14 05:10,  -10.0,   -9.1,   -6.7,   -5.6,   -5.6,   -6.6,   -8.0,   -8.0,   -7.6,   -6.3,   -4.3,   -4.2,   -4.6,   -4.6,   -3.9,  999.0,  999.0,  999.0,  999.0,  999.0,  999.0,  999.0,   -2.6,  999.0,  999.0,  999.0,  999.0,  999.0,  999.0,   -3.1,  999.0,  999.0
1999/08/14 05:20,  -11.0,  999.0,   -7.6,   -7.0,   -5.6,   -6.1,   -7.2,   -7.2,   -7.6,   -6.7,   -4.4,   -4.0,   -5.3,   -4.7,   -5.1,  999.0,  999.0,  999.0,  999.0,  999.0,  999.0,  999.0,  999.0,   -2.6,  999.0,  999.0,  999.0,  999.0,  999.0,  999.0,  999.0,  999.0
1999/08/14 05:30,  999.0,   -9.2,   -8.2,   -6.6,   -6.2,   -6.1,   -7.2,   -7.1,   -7.7,   -6.9,   -5.2,  999.0,  999.0,   -4.5,   -4.7,   -4.7,  999.0,  999.0,   -3.3,  999.0,  999.0,   -2.5,   -2.4,   -2.3,  999.0,  999.0,  999.0,  999.0,  999.0,  999.0,  999.0,  999.0
1999/08/14 05:40,  -11.4,   -9.4,   -8.1,   -7.1,  999.0,   -6.6,   -7.0,   -7.4,   -7.2,   -5.2,  999.0,  999.0,  999.0,  999.0,   -4.1,   -4.7,   -5.4,  999.0,  999.0,  999.0,  999.0,   -3.0,  999.0,   -2.8,  999.0,  999.0,  999.0,  999.0,  999.0,  999.0,  999.0,  999.0
1999/08/14 05:50,  -10.0,   -9.7,   -8.1,   -6.4,   -5.7,   -5.8,   -7.0,   -7.1,   -7.3,   -5.7,  999.0,   -5.3,   -5.7,   -5.6,  999.0,  999.0,   -4.7,   -4.4,   -4.3,  999.0,  999.0,  999.0,   -3.3,   -2.3,  999.0,  999.0,  999.0,  999.0,  999.0,  999.0,  999.0,  999.0
1999/08/14 06:00,   -9.7,  999.0,   -8.2,   -5.6,   -5.5,   -6.5,   -7.4,   -8.2,   -8.9,   -7.2,  999.0,   -5.5,   -6.1,  999.0,  999.0,  999.0,   -5.1,   -5.4,   -4.1,  999.0,  999.0,   -4.7,   -2.3,   -1.9,  999.0,  999.0,  999.0,  999.0,  999.0,  999.0,  999.0,  999.0
1999/08/14 06:10,  999.0,  999.0,   -8.7,   -6.7,   -5.2,   -6.2,   -7.9,   -8.5,   -9.1,   -8.1,  999.0,   -5.5,   -5.4,   -5.8,   -5.7,  999.0,   -5.1,  999.0,   -5.3,  999.0,  999.0,   -4.4,   -2.5,  999.0,  999.0,  999.0,  999.0,  999.0,  999.0,  999.0,  999.0,  999.0
1999/08/14 06:20,   -8.8,  -10.0,   -8.9,   -7.5,   -6.1,   -5.6,   -7.7,   -8.2,   -8.7,   -8.7,   -7.1,   -6.3,  999.0,  999.0,  999.0,  999.0,   -4.3,  999.0,   -4.4,  999.0,  999.0,   -4.7,  999.0,  999.0,  999.0,  999.0,  999.0,  999.0,   -3.8,   -3.6,  999.0,  999.0
1999/08/14 06:30,   -7.9,   -9.5,   -9.3,   -7.9,   -6.8,   -6.7,  999.0,   -7.6,   -7.3,   -7.8,   -7.2,   -6.2,   -5.7,   -6.0,  999.0,  999.0,  999.0,  999.0,   -4.9,  999.0,  999.0,  999.0,  999.0,  999.0,  999.0,  999.0,  999.0,  999.0,  999.0,  999.0,  999.0,  999.0
1999/08/14 06:40,   -8.3,  -10.1,   -9.4,   -8.7,   -7.8,   -6.5,   -6.8,   -6.9,   -7.2,   -7.5,   -6.7,   -5.8,  999.0,  999.0,  999.0,  999.0,  999.0,  999.0,   -5.3,  999.0,   -5.0,  999.0,   -4.1,  999.0,  999.0,  999.0,  999.0,  999.0,  999.0,  999.0,  999.0,  999.0
1999/08/14 06:50,   -8.3,  -10.6,  -10.3,  999.0,   -8.6,   -6.6,   -7.1,  999.0,   -7.3,   -7.3,   -7.0,  999.0,  999.0,  999.0,  999.0,  999.0,  999.0,  999.0,  999.0,  999.0,   -4.3,  999.0,  999.0,  999.0,  999.0,  999.0,  999.0,  999.0,  999.0,  999.0,  999.0,   -4.2
1999/08/14 07:00,  -10.4,  -10.4,  -10.4,  -10.2,  999.0,   -7.2,   -7.4,  999.0,   -8.6,  999.0,   -6.7,   -7.4,  999.0,   -6.8,  999.0,  999.0,  999.0,  999.0,  999.0,  999.0,  999.0,  999.0,  999.0,  999.0,  999.0,  999.0,  999.0,  999.0,  999.0,  999.0,  999.0,   -3.8
1999/08/14 07:10,  -10.5,  -10.8,  -10.4,   -9.6,  999.0,   -7.1,   -6.4,   -7.1,  999.0,   -7.1,  999.0,   -7.9,  999.0,   -6.7,  999.0,  999.0,  999.0,  999.0,   -6.0,   -5.6,  999.0,  999.0,  999.0,  999.0,  999.0,  999.0,  999.0,  999.0,  999.0,  999.0,  999.0,  999.0
1999/08/14 07:20,   -9.8,  -10.6,  -10.7,  -10.5,  -10.1,   -8.6,   -6.8,   -6.6,  999.0,   -7.5,   -8.0,  999.0,  999.0,  999.0,  999.0,   -5.9,  999.0,  999.0,  999.0,   -6.0,  999.0,  999.0,  999.0,  999.0,  999.0,  999.0,  999.0,  999.0,  999.0,  999.0,  999.0,   -3.5
1999/08/14 07:30,   -9.6,  -10.4,  -10.4,  -10.5,  999.0,   -9.0,   -7.4,   -6.8,   -6.7,   -7.3,   -8.3,   -7.5,   -6.8,   -7.6,  999.0,   -6.3,   -6.7,   -7.0,   -5.1,  999.0,  999.0,  999.0,  999.0,  999.0,   -4.5,  999.0,  999.0,  999.0,  999.0,  999.0,   -4.2,  999.0
1999/08/14 07:40,   -9.7,   -9.9,  -10.0,  -10.3,  999.0,   -8.8,   -7.6,   -6.8,   -7.0,   -7.4,   -7.2,  999.0,   -6.1,  999.0,  999.0,  999.0,   -5.6,   -5.1,  999.0,  999.0,  999.0,  999.0,  999.0,  999.0,   -4.1,  999.0,  999.0,  999.0,  999.0,  999.0,  999.0,  999.0
1999/08/14 07:50,   -9.1,   -9.9,   -9.7,  -10.0,  999.0,   -8.2,   -7.0,   -6.7,   -6.2,  999.0,  999.0,   -5.5,   -6.0,  999.0,  999.0,   -6.0,   -5.7,   -5.4,  999.0,   -4.7,   -5.2,  999.0,  999.0,  999.0,  999.0,  999.0,  999.0,  999.0,  999.0,  999.0,  999.0,  999.0
1999/08/14 08:00,   -9.3,   -9.3,   -9.2,   -9.2,  999.0,   -8.4,   -7.0,   -6.3,   -6.1,   -6.1,   -6.2,   -6.1,   -6.6,   -7.2,  999.0,   -6.4,  999.0,  999.0,  999.0,   -5.2,  999.0,  999.0,  999.0,  999.0,  999.0,  999.0,  999.0,  999.0,  999.0,  999.0,  999.0,  999.0
1999/08/14 08:10,   -8.9,   -9.2,   -9.2,  999.0,  999.0,   -8.8,   -7.8,   -6.8,  999.0,   -7.6,   -6.8,   -6.5,   -6.5,   -7.0,  999.0,  999.0,  999.0,  999.0,  999.0,  999.0,  999.0,  999.0,  999.0,  999.0,  999.0,  999.0,  999.0,  999.0,  999.0,  999.0,  999.0,  999.0
1999/08/14 08:20,   -7.7,   -9.0,   -8.9,   -9.0,   -8.5,   -7.8,   -7.9,   -7.2,  999.0,   -7.2,   -6.5,  999.0,   -6.4,  999.0,  999.0,  999.0,  999.0,  999.0,  999.0,  999.0,  999.0,   -6.3,  999.0,  999.0,  999.0,  999.0,  999.0,  999.0,  999.0,   -4.9,   -5.1,  999.0
1999/08/14 08:30,   -7.6,   -9.5,   -9.4,  -10.3,   -9.7,   -8.4,   -7.8,  999.0,   -6.7,   -7.0,   -7.5,   -6.4,   -5.7,  999.0,  999.0,  999.0,  999.0,  999.0,  999.0,   -6.0,   -6.1,  999.0,  999.0,  999.0,  999.0,  999.0,  999.0,  999.0,  999.0,   -4.6,   -4.4,  999.0
1999/08/14 08:40,   -7.0,   -9.7,   -9.5,   -9.7,   -9.3,  999.0,   -8.7,   -7.3,  999.0,   -7.7,  999.0,   -6.6,   -6.1,   -6.5,   -6.8,  999.0,  999.0,  999.0,  999.0,  999.0,  999.0,   -4.6,  999.0,  999.0,  999.0,  999.0,  999.0,  999.0,  999.0,  999.0,  999.0,  999.0
1999/08/14 08:50,   -7.7,  -10.0,  -10.4,  -10.8,  999.0,   -9.7,  999.0,   -7.3,   -6.7,  999.0,   -7.4,  999.0,   -7.2,   -6.6,  999.0,   -6.1,   -6.5,  999.0,  999.0,   -5.9,   -5.6,  999.0,  999.0,   -5.6,  999.0,  999.0,  999.0,  999.0,  999.0,   -4.3,  999.0,  999.0
1999/08/14 09:00,   -6.5,  -10.5,  -10.5,  -10.3,  -10.9,   -8.4,   -8.0,   -6.4,   -6.4,   -7.0,   -6.5,   -7.6,   -7.5,   -8.0,   -6.3,   -5.9,   -6.1,   -5.8,  999.0,  999.0,  999.0,  999.0,  999.0,  999.0,   -5.9,  999.0,  999.0,  999.0,   -6.2,   -4.1,   -3.3,  999.0
1999/08/14 09:10,   -7.4,  -10.8,  -10.6,  999.0,  999.0,   -7.2,   -7.8,  999.0,   -7.3,   -6.8,   -6.7,   -7.3,   -7.4,   -7.5,  999.0,  999.0,   -5.2,   -4.5,  999.0,  999.0,  999.0,  999.0,  999.0,  999.0,  999.0,  999.0,  999.0,  999.0,   -5.0,   -3.6,  999.0,  999.0
1999/08/14 09:20,   -8.0,  -10.4,  -10.7,  -10.0,   -9.8,  999.0,   -7.0,   -7.8,   -6.0,   -6.8,   -6.9,   -7.5,   -8.5,   -7.9,   -8.6,   -8.2,  999.0,   -5.5,  999.0,  999.0,  999.0,  999.0,  999.0,  999.0,  999.0,  999.0,  999.0,  999.0,  999.0,  999.0,  999.0,  999.0
1999/08/14 09:30,   -8.9,  -10.3,  -11.3,  -10.3,   -9.7,  -10.3,   -7.6,   -6.6,  999.0,   -6.4,   -6.9,   -7.5,  999.0,  999.0,  999.0,  999.0,  999.0,  999.0,  999.0,  999.0,  999.0,   -5.5,  999.0,  999.0,  999.0,  999.0,  999.0,  999.0,  999.0,  999.0,  999.0,   -1.9
1999/08/14 09:40,   -8.8,  -10.5,  -10.8,  -10.9,  -10.6,   -9.7,   -7.3,   -6.5,  999.0,   -6.9,   -6.9,   -7.6,   -8.0,  999.0,   -7.7,  999.0,  999.0,  999.0,  999.0,  999.0,  999.0,   -5.6,  999.0,  999.0,  999.0,  999.0,  999.0,  999.0,  999.0,  999.0,  999.0,   -3.2
1999/08/14 09:50,   -8.8,  -10.5,  -11.3,  -11.0,  -10.6,  999.0,   -9.3,   -6.9,   -6.3,   -6.1,   -6.9,   -6.9,   -6.6,  999.0,   -6.3,  999.0,   -7.3,  999.0,  999.0,  999.0,  999.0,  999.0,  999.0,  999.0,  999.0,  999.0,  999.0,  999.0,   -5.2,  999.0,  999.0,   -2.9
1999/08/14 10:00,   -8.9,  -10.8,  -12.1,  -10.5,  -10.6,  -10.7,   -8.3,   -7.1,  999.0,   -6.6,   -7.2,   -7.4,   -7.0,  999.0,   -6.6,   -6.2,   -6.7,   -5.3,  999.0,  999.0,  999.0,  999.0,  999.0,  999.0,  999.0,  999.0,  999.0,  999.0,  999.0,  999.0,  999.0,  999.0
1999/08/14 10:10,   -8.7,  -10.7,  -11.0,  999.0,  -13.5,  -10.2,   -8.5,   -7.0,   -7.4,   -6.3,   -7.5,   -7.8,   -6.4,  999.0,  999.0,   -6.0,   -6.7,   -4.8,  999.0,  999.0,  999.0,  999.0,  999.0,  999.0,  999.0,  999.0,  999.0,  999.0,  999.0,  999.0,  999.0,  999.0
1999/08/14 10:20,   -7.9,  -11.1,  -10.8,   -9.3,  -11.2,   -9.9,   -8.4,   -6.6,  999.0,   -6.8,   -7.6,   -6.6,  999.0,  999.0,   -6.2,   -7.0,   -7.5,   -6.3,  999.0,  999.0,   -6.5,  999.0,  999.0,  999.0,  999.0,  999.0,  999.0,   -5.0,  999.0,  999.0,  999.0,  999.0
1999/08/14 10:30,   -7.3,  -10.3,  -10.9,  -11.6,  -11.7,  -10.6,   -8.6,   -6.1,   -6.5,   -6.4,   -7.1,   -6.5,   -7.1,  999.0,   -5.4,   -6.1,   -7.4,   -6.3,  999.0,  999.0,   -6.3,  999.0,  999.0,  999.0,  999.0,  999.0,  999.0,  999.0,  999.0,  999.0,  999.0,  999.0
1999/08/14 10:40,   -7.0,   -9.4,  -10.2,  999.0,  -10.4,   -9.8,   -7.8,  999.0,  999.0,  999.0,   -5.4,   -5.0,  999.0,   -4.4,   -5.0,   -6.0,  999.0,   -7.7,  999.0,  999.0,   -8.8,  999.0,  999.0,  999.0,  999.0,  999.0,  999.0,  999.0,  999.0,  999.0,  999.0,  999.0
1999/08/14 10:50,   -6.9,   -9.0,   -9.2,  999.0,  -10.5,  -11.0,   -8.3,   -8.4,   -6.1,  999.0,  999.0,   -5.8,   -5.1,   -4.5,   -4.2,   -4.9,  999.0,  999.0,  999.0,   -6.7,  999.0,  999.0,  999.0,  999.0,  999.0,  999.0,  999.0,  999.0,  999.0,  999.0,  999.0,  999.0
1999/08/14 11:00,   -7.1,   -8.7,   -9.9,  -10.4,  -10.2,   -8.5,   -8.7,   -7.5,   -4.9,  999.0,  999.0,   -5.9,   -4.1,   -4.0,   -5.1,   -6.4,   -8.1,  999.0,  999.0,   -7.1,  999.0,  999.0,  999.0,  999.0,  999.0,  999.0,   -4.3,  999.0,  999.0,  999.0,  999.0,  999.0
1999/08/14 11:10,   -7.7,   -9.7,  -10.8,  -11.1,  -10.6,   -9.7,   -8.6,   -7.0,   -5.5,   -6.5,   -6.7,   -5.9,   -4.9,   -5.0,   -5.5,   -6.9,   -8.1,  999.0,  999.0,   -7.7,  999.0,  999.0,  999.0,  999.0,  999.0,  999.0,  999.0,  999.0,  999.0,   -3.2,  999.0,  999.0
1999/08/14 11:20,   -7.6,   -9.0,   -9.8,  -10.6,  -10.5,   -9.4,   -8.5,   -6.9,  999.0,  999.0,   -5.6,   -6.1,   -5.3,   -4.0,   -5.1,   -6.2,   -6.3,  999.0,  999.0,  999.0,  999.0,  999.0,  999.0,  999.0,  -10.0,  999.0,  999.0,  999.0,   -4.1,   -3.5,  999.0,  999.0
1999/08/14 11:30,   -7.2,   -8.2,  -10.2,  -11.6,  -10.1,   -9.2,   -7.2,   -7.2,  999.0,   -5.7,   -5.3,   -5.5,   -6.2,   -4.3,   -4.9,   -6.4,   -7.8,   -8.0,   -7.1,   -7.3,  999.0,  999.0,  999.0,  999.0,   -7.6,  999.0,  999.0,   -3.5,  999.0,  999.0,  999.0,  999.0
1999/08/14 11:40,   -6.9,   -8.0,  -10.3,  -11.2,  999.0,   -9.4,   -7.6,   -6.9,   -6.0,   -5.2,  999.0,   -3.7,   -4.9,   -4.6,   -5.6,   -6.5,   -6.2,   -7.1,   -7.7,  999.0,  999.0,  999.0,  -12.9,  999.0,  999.0,  999.0,  999.0,  999.0,  999.0,  999.0,   -3.6,  999.0
1999/08/14 11:50,   -7.0,   -8.0,   -8.8,  -10.2,  -11.0,   -9.5,   -8.8,   -6.5,   -6.1,  999.0,   -4.8,  999.0,   -4.4,  999.0,  999.0,  999.0,   -5.8,   -7.0,   -6.8,  999.0,  999.0,  999.0,  999.0,  999.0,  999.0,  999.0,  999.0,  999.0,  999.0,  999.0,  999.0,   -3.7
1999/08/14 12:00,   -6.0,   -6.1,   -8.0,   -7.9,   -9.1,  -10.2,   -8.9,   -7.2,   -6.0,   -5.3,   -5.6,  999.0,   -5.4,  999.0,  999.0,  999.0,   -6.5,   -7.5,   -7.4,   -7.2,  999.0,  999.0,  999.0,  999.0,  999.0,  999.0,  999.0,  999.0,  999.0,  999.0,  999.0,  999.0
1999/08/14 12:10,   -5.8,   -5.7,   -5.8,   -5.7,   -9.2,   -8.9,   -9.1,   -7.6,   -6.1,   -5.3,  999.0,  999.0,  999.0,   -6.7,  999.0,  999.0,   -7.5,   -7.2,  999.0,   -8.6,  999.0,  999.0,  999.0,  999.0,  999.0,  999.0,  999.0,  999.0,  999.0,  999.0,   -3.2,  999.0
1999/08/14 12:20,   -6.9,   -7.7,   -8.2,   -8.3,   -9.0,   -9.6,   -9.5,   -8.2,   -6.8,   -5.8,   -5.7,   -4.3,  999.0,   -5.9,  999.0,   -7.7,   -7.9,   -6.3,  999.0,  999.0,  999.0,  999.0,  999.0,  999.0,  999.0,  999.0,  999.0,  999.0,  999.0,  999.0,  999.0,  999.0
1999/08/14 12:30,   -6.3,   -7.8,   -8.5,   -9.5,   -9.2,  -10.1,   -9.7,   -8.0,   -6.3,   -4.7,   -4.2,   -4.6,   -4.1,   -5.6,  999.0,   -7.5,   -7.4,   -7.3,  999.0,  999.0,  999.0,  999.0,  999.0,  999.0,  999.0,  999.0,  999.0,  999.0,  999.0,  999.0,  999.0,  999.0
1999/08/14 12:40,   -8.0,   -8.4,   -7.8,   -9.1,   -9.5,  -11.2,  -11.2,   -9.5,   -9.0,   -5.9,   -5.2,   -4.9,   -4.6,   -4.8,  999.0,   -6.3,   -6.2,  999.0,  999.0,  999.0,  999.0,  999.0,  999.0,  999.0,  999.0,  999.0,  999.0,  999.0,  999.0,  999.0,  999.0,  999.0
1999/08/14 12:50,   -7.4,   -9.5,   -9.1,   -8.5,   -9.7,  -10.9,  -10.9,   -9.5,   -7.3,   -5.7,   -4.6,   -4.7,   -4.6,   -5.0,  999.0,  999.0,   -6.2,   -4.2,  999.0,  999.0,  999.0,  999.0,  999.0,  999.0,  999.0,  999.0,  999.0,  999.0,  999.0,  999.0,  999.0,  999.0
1999/08/14 13:00,   -5.8,   -7.9,   -7.6,   -9.3,   -9.1,   -9.4,   -9.1,   -8.5,   -6.9,   -5.3,   -5.4,   -3.4,   -4.1,   -4.5,  999.0,  999.0,   -6.5,   -5.9,  999.0,  999.0,  999.0,  999.0,   -7.6,  999.0,  999.0,  999.0,  999.0,  999.0,  999.0,  999.0,  999.0,  999.0
1999/08/14 13:10,   -9.3,   -5.3,   -7.3,   -6.5,   -8.2,   -8.7,   -8.7,   -8.0,   -6.9,   -5.5,   -4.8,   -5.1,  999.0,   -5.6,  999.0,  999.0,   -6.6,   -5.2,  999.0,  999.0,  999.0,  999.0,  999.0,  999.0,  999.0,  999.0,  999.0,  999.0,  999.0,  999.0,  999.0,  999.0
1999/08/14 13:20,   -6.1,   -6.6,   -7.6,   -7.8,   -7.8,   -8.5,   -9.0,   -8.6,   -7.9,   -6.5,   -6.4,   -5.9,   -5.6,   -6.3,   -7.2,   -8.0,   -6.6,   -5.8,  999.0,  999.0,  999.0,  999.0,  999.0,  999.0,  999.0,  999.0,  999.0,  999.0,  999.0,  999.0,  999.0,  999.0
1999/08/14 13:30,   -6.3,   -7.9,   -9.8,   -8.6,   -7.1,   -7.6,   -9.6,   -7.8,   -8.5,   -7.4,   -6.9,   -5.5,   -5.0,   -5.0,   -6.4,   -5.8,   -5.7,  999.0,  999.0,   -7.1,   -6.4,   -8.5,  999.0,  999.0,  999.0,  999.0,  999.0,  999.0,  999.0,  999.0,  999.0,  999.0
1999/08/14 13:40,   -8.0,   -8.6,   -8.2,   -7.7,   -8.8,  -10.6,   -8.2,  999.0,  999.0,   -6.5,   -6.2,   -6.8,  999.0,  999.0,  999.0,  999.0,  999.0,  -11.1,  999.0,   -9.5,   -9.0,   -9.1,   -8.3,   -7.5,  999.0,  999.0,   -5.3,   -6.6,   -6.8,  999.0,  999.0,  999.0
1999/08/14 13:50,   -7.8,   -9.2,  -10.7,   -9.9,   -9.4,   -9.9,   -7.3,   -6.2,  -10.8,  999.0,  999.0,   -7.4,   -7.4,   -6.8,   -6.5,   -7.0,   -5.0,   -5.4,   -5.8,   -6.0,   -7.2,   -7.2,   -6.9,  999.0,   -4.9,   -5.7,  999.0,  999.0,  999.0,   -5.4,   -6.7,   -5.4
1999/08/14 14:00,   -6.6,   -8.7,   -9.2,  -10.0,  -10.0,   -9.7,   -8.9,   -8.0,   -7.5,   -6.3,   -6.2,   -6.0,   -5.9,   -5.7,   -5.4,   -6.1,   -6.1,  999.0,   -6.7,   -9.4,  -11.3,   -8.6,  999.0,  999.0,  999.0,  999.0,  999.0,  999.0,   -8.8,   -8.4,  999.0,  999.0
1999/08/14 14:10,   -7.3,   -8.3,   -8.6,  -10.6,  -10.8,  -11.0,  -10.1,   -9.1,   -7.7,   -8.7,   -8.1,   -8.9,   -6.3,   -8.6,   -7.5,   -5.7,   -7.1,   -8.3,  -12.8,  -11.4,   -9.6,   -9.8,   -8.0,   -9.8,   -6.4,   -7.2,   -7.2,   -8.1,   -9.9,   -7.1,   -6.4,  999.0
1999/08/14 14:20,   -6.8,   -8.1,   -9.4,  -11.1,  -11.0,  -11.0,   -9.1,   -7.7,  999.0,   -6.7,   -6.3,  999.0,   -5.4,  999.0,   -5.5,  999.0,  999.0,  999.0,  999.0,  999.0,  999.0,  999.0,  999.0,  999.0,   -7.1,   -5.9,   -6.6,   -6.6,   -7.2,   -7.7,  999.0,  999.0
1999/08/14 14:30,   -7.4,   -8.6,   -9.8,  -11.1,  -11.6,  -10.9,   -9.6,   -9.1,   -7.9,  999.0,   -5.4,   -5.9,   -5.9,  999.0,  999.0,   -5.9,  999.0,   -7.5,  999.0,  999.0,  999.0,  999.0,  999.0,  999.0,   -6.5,   -7.4,   -5.6,   -6.5,   -5.9,  999.0,  999.0,  999.0
1999/08/14 14:40,  999.0,   -7.8,   -9.1,   -9.2,   -9.9,  -10.4,  -10.0,   -8.7,   -7.5,   -6.3,   -6.3,   -5.7,   -6.0,   -6.6,   -6.4,   -5.7,   -6.1,   -7.8,   -8.9,   -8.6,   -7.0,   -7.8,   -6.7,   -7.0,   -8.2,   -8.0,  999.0,  999.0,  999.0,  999.0,  999.0,  999.0
1999/08/14 14:50,   -7.8,   -9.0,   -8.8,   -9.3,   -9.5,   -9.6,   -8.3,   -8.3,   -7.6,   -7.6,   -7.5,   -7.2,   -6.8,   -7.3,   -6.3,   -5.5,   -6.0,   -7.3,   -8.1,   -8.7,  999.0,  999.0,   -6.9,   -6.5,   -7.4,  999.0,  999.0,  999.0,  999.0,  999.0,  999.0,  999.0
1999/08/14 15:00,   -7.2,   -8.3,   -9.8,   -9.2,   -8.7,   -8.3,   -8.0,   -7.0,   -7.3,   -7.6,   -6.9,   -7.5,   -7.0,   -7.1,   -5.8,   -4.8,   -5.3,   -6.3,   -7.2,   -8.1,  999.0,  999.0,  999.0,  999.0,  999.0,  999.0,  999.0,  999.0,  999.0,  999.0,  999.0,  999.0
1999/08/14 15:10,   -7.2,   -8.2,  999.0,   -9.4,   -8.5,   -8.4,   -8.6,   -7.7,   -7.2,   -6.9,   -7.8,   -7.6,   -7.3,   -5.7,   -4.7,   -5.1,   -6.3,   -7.6,   -7.6,   -7.9,  999.0,  999.0,   -7.2,  999.0,  999.0,  999.0,  999.0,  999.0,  999.0,  999.0,  999.0,  999.0
1999/08/14 15:20,   -7.9,   -8.7,   -8.1,   -8.5,   -7.9,   -7.6,   -6.7,   -7.0,   -7.4,   -6.7,   -6.8,   -5.2,   -6.1,   -5.5,   -5.2,   -5.8,   -6.9,   -7.3,   -7.7,  999.0,  999.0,  999.0,  999.0,  999.0,  999.0,  999.0,  999.0,  999.0,  999.0,  999.0,  999.0,  999.0
1999/08/14 15:30,   -8.0,   -8.4,   -7.9,   -7.3,   -7.5,   -6.5,   -7.2,   -6.7,   -7.3,   -7.0,   -7.1,   -5.5,   -5.9,   -5.7,   -5.8,   -6.9,   -6.7,   -7.2,  999.0,  999.0,  999.0,   -8.4,  999.0,  999.0,   -8.0,  999.0,  999.0,  999.0,  999.0,  999.0,  999.0,   -8.7
1999/08/14 15:40,   -8.1,   -9.1,   -8.2,   -8.1,   -7.8,   -7.4,   -7.4,   -7.1,   -7.6,   -9.2,   -7.3,   -4.8,   -5.4,   -5.5,   -5.4,   -6.7,   -6.3,   -7.8,  999.0,   -8.9,   -8.1,   -8.5,  999.0,   -8.1,  999.0,  999.0,  999.0,  999.0,  999.0,  999.0,  999.0,   -8.6
1999/08/14 15:50,   -7.5,   -9.2,   -8.9,   -8.2,   -6.9,   -6.7,   -6.2,   -6.3,   -5.7,   -7.6,   -7.3,   -6.9,   -6.5,   -6.7,   -7.2,  999.0,  999.0,  999.0,   -7.9,   -8.1,   -7.6,  999.0,   -7.2,  999.0,  999.0,  999.0,  999.0,  999.0,  999.0,  999.0,  999.0,  999.0
1999/08/14 16:00,   -8.1,   -9.3,   -8.6,   -7.3,   -6.0,   -6.2,   -6.1,   -5.4,   -5.1,   -5.6,   -6.4,   -7.2,   -6.2,   -6.5,   -7.1,   -7.6,   -6.5,  999.0,  999.0,  999.0,  999.0,   -7.8,  999.0,  999.0,  999.0,  999.0,  999.0,  999.0,  999.0,  999.0,  999.0,  999.0
1999/08/14 16:10,   -7.7,   -8.0,   -7.9,   -7.3,  999.0,   -5.3,   -5.4,   -5.0,   -5.0,   -5.1,  999.0,   -7.0,   -6.9,   -7.1,   -6.8,  999.0,  999.0,  999.0,  999.0,  999.0,   -8.3,   -7.3,  999.0,  999.0,  999.0,  999.0,  999.0,  999.0,  999.0,  999.0,  999.0,  999.0
1999/08/14 16:20,   -8.1,   -7.9,   -7.2,   -6.8,   -6.2,   -5.8,   -6.1,   -6.3,   -6.0,   -5.5,   -6.1,   -6.0,   -5.6,   -5.7,   -5.4,   -4.9,   -6.0,  999.0,  999.0,  999.0,  999.0,  999.0,  999.0,  999.0,  999.0,  999.0,  999.0,  999.0,  999.0,  999.0,  999.0,  999.0
1999/08/14 16:30,   -8.8,   -8.0,   -7.4,   -6.5,   -6.1,   -5.6,   -6.0,   -6.3,   -6.6,   -5.7,   -5.1,   -5.4,   -5.5,   -6.2,   -5.0,   -4.1,  999.0,  999.0,  999.0,  999.0,  999.0,  999.0,  999.0,  999.0,  999.0,  999.0,  999.0,  999.0,  999.0,  999.0,  999.0,  999.0
1999/08/14 16:40,   -9.3,   -8.0,   -9.9,  999.0,   -5.7,   -6.7,   -5.0,   -5.6,   -6.4,   -6.7,   -6.5,   -5.4,   -5.9,   -6.7,   -5.1,   -4.9,  999.0,  999.0,  999.0,   -6.8,  999.0,  999.0,  999.0,  999.0,  999.0,  999.0,  999.0,  999.0,  999.0,  999.0,  999.0,  999.0
1999/08/14 16:50,   -8.5,   -7.6,   -6.6,   -5.7,   -4.3,   -4.0,   -4.1,   -6.1,   -5.4,   -5.1,   -6.0,   -6.1,   -7.2,   -6.6,   -4.8,  999.0,   -4.5,  999.0,  999.0,  999.0,  999.0,  999.0,  999.0,  999.0,  999.0,  999.0,  999.0,  999.0,  999.0,  999.0,  999.0,  999.0
1999/08/14 17:00,   -8.1,   -7.5,   -6.3,   -6.2,   -4.3,   -4.5,   -5.3,   -5.6,   -4.7,   -5.1,   -5.0,   -5.4,  999.0,   -5.1,  999.0,  999.0,  999.0,  999.0,   -7.6,  999.0,  999.0,  999.0,  999.0,  999.0,  999.0,  999.0,  999.0,  999.0,  999.0,  999.0,  999.0,  999.0
1999/08/14 17:10,   -7.5,   -6.7,   -6.0,   -5.3,  999.0,   -4.4,   -3.0,   -4.3,   -3.6,   -4.0,   -4.6,   -4.8,   -5.7,   -5.6,   -4.3,   -5.5,   -6.2,   -7.4,  999.0,   -7.8,   -7.8,  999.0,  999.0,  999.0,  999.0,  999.0,  999.0,  999.0,   -5.1,   -6.6,  999.0,  999.0
1999/08/14 17:20,   -7.9,   -7.1,   -6.5,  999.0,  999.0,   -4.6,   -4.1,   -3.9,   -4.2,   -3.7,   -3.3,   -4.4,   -5.4,   -5.7,   -3.2,  999.0,  999.0,  999.0,  999.0,   -6.4,   -6.9,   -6.3,  999.0,  999.0,  999.0,  999.0,  999.0,  999.0,  999.0,  999.0,  999.0,  999.0
1999/08/14 17:30,   -7.7,   -7.1,   -6.5,   -6.5,   -5.5,   -5.5,   -5.2,   -4.0,   -3.8,   -4.1,   -3.9,   -6.2,  999.0,  999.0,   -2.4,  999.0,  999.0,   -5.4,  999.0,  999.0,  999.0,  999.0,  999.0,  999.0,  999.0,  999.0,  999.0,  999.0,  999.0,  999.0,  999.0,  999.0
1999/08/14 17:40,   -8.3,   -7.8,   -6.7,   -5.8,   -5.5,   -5.0,  999.0,  999.0,   -4.0,   -3.8,   -5.0,   -5.9,  999.0,  999.0,  999.0,  999.0,  999.0,   -6.9,  999.0,  999.0,  999.0,  999.0,  999.0,  999.0,  999.0,   -6.2,  999.0,  999.0,  999.0,   -7.1,  999.0,  999.0
1999/08/14 17:50,   -9.1,   -8.1,   -7.5,   -7.1,   -5.9,   -4.7,   -4.8,   -4.6,   -5.0,   -4.6,   -4.6,   -5.0,   -3.5,  999.0,   -3.4,   -3.4,  999.0,  999.0,  999.0,  999.0,  999.0,  999.0,  999.0,  999.0,  999.0,   -5.3,   -5.5,   -5.8,   -6.2,   -6.9,  999.0,  999.0
1999/08/14 18:00,   -9.0,   -8.8,   -7.6,   -3.3,   -6.0,   -4.5,   -4.3,   -5.0,   -5.0,   -3.6,   -3.8,   -4.4,  999.0,  999.0,  999.0,   -3.6,  999.0,  999.0,  999.0,   -6.5,   -7.4,  999.0,  999.0,  999.0,  999.0,  999.0,   -5.6,   -4.8,  999.0,   -6.6,  999.0,  999.0
1999/08/14 18:10,   -8.3,   -7.6,   -6.5,   -5.5,  999.0,  999.0,   -5.3,   -4.8,   -4.9,   -4.9,   -4.7,   -5.5,   -5.3,  999.0,   -4.2,   -4.5,   -4.5,   -4.8,   -5.2,   -5.9,   -7.3,  999.0,  999.0,  999.0,  999.0,   -8.0,   -6.9,   -6.2,   -6.8,   -7.0,  999.0,  999.0
1999/08/14 18:20,   -8.1,   -8.2,   -7.5,   -6.6,   -5.7,   -5.9,   -4.9,   -4.1,   -4.2,   -5.3,   -6.4,   -6.2,   -6.1,   -4.8,   -4.1,   -4.2,   -4.2,   -4.5,   -4.6,   -5.5,  999.0,  999.0,  999.0,   -6.2,  999.0,   -6.8,   -4.9,   -5.1,  999.0,  999.0,  999.0,  999.0
1999/08/14 18:30,   -7.7,   -8.5,   -8.2,  999.0,   -5.5,  999.0,   -4.0,   -3.6,  999.0,   -6.4,   -6.8,   -6.8,   -7.0,   -3.7,  999.0,  999.0,  999.0,   -4.5,   -4.7,  999.0,  999.0,  999.0,  999.0,  999.0,   -6.4,   -7.0,  999.0,  999.0,  999.0,  999.0,   -5.9,   -7.6
1999/08/14 18:40,   -6.2,   -6.8,   -7.5,   -6.3,  999.0,   -4.2,   -3.3,   -3.1,   -5.6,   -6.4,   -6.6,   -6.4,   -6.1,   -2.2,  999.0,   -1.8,   -2.9,  999.0,   -6.7,  999.0,  999.0,  999.0,  999.0,  999.0,  999.0,   -6.3,  999.0,  999.0,  999.0,   -5.4,   -6.2,  999.0
1999/08/14 18:50,   -5.8,   -6.8,   -7.4,   -6.5,  999.0,   -4.6,   -3.5,   -4.0,   -5.4,   -6.2,   -6.3,   -5.9,   -4.8,   -2.0,  999.0,  999.0,   -2.7,  999.0,  999.0,  999.0,  999.0,  999.0,  999.0,  999.0,  999.0,  999.0,  999.0,  999.0,  999.0,   -6.9,   -6.9,  999.0
1999/08/14 19:00,   -7.6,  999.0,  -10.1,   -6.3,   -4.8,   -5.1,  999.0,   -3.5,   -3.7,   -5.8,   -6.6,   -6.3,   -5.0,   -1.7,  999.0,   -2.4,  999.0,  999.0,  999.0,  999.0,  999.0,  999.0,  999.0,  999.0,  999.0,  999.0,  999.0,   -5.7,  999.0,  999.0,   -6.4,   -5.4
1999/08/14 19:10,  999.0,  999.0,   -6.1,  999.0,  999.0,   -4.2,   -3.9,   -3.3,   -4.1,   -5.6,   -5.3,   -5.4,   -3.0,  999.0,  999.0,   -2.2,   -3.7,   -5.5,  999.0,   -6.4,   -5.8,  999.0,  999.0,  999.0,  999.0,  999.0,  999.0,   -5.7,  999.0,  999.0,   -6.0,  999.0
1999/08/14 19:20,  999.0,   -5.3,   -6.2,   -6.8,   -6.0,   -4.4,   -3.6,   -4.7,   -5.4,   -5.4,   -4.7,   -4.5,   -3.3,   -2.4,  999.0,  999.0,   -5.5,   -6.3,  999.0,   -8.5,  999.0,  999.0,  999.0,  999.0,  999.0,  999.0,  999.0,  999.0,  999.0,  999.0,   -6.9,  999.0
1999/08/14 19:30,  999.0,  999.0,   -7.8,  999.0,   -5.3,   -5.9,   -4.6,   -5.8,   -6.7,   -6.3,   -5.4,   -3.8,   -3.7,   -2.5,  999.0,   -3.0,   -5.0,   -7.2,   -8.8,   -8.4,  999.0,  999.0,  999.0,  999.0,  999.0,  999.0,  999.0,   -7.5,   -8.0,   -7.8,   -6.7,   -5.1
1999/08/14 19:40,   -4.1,   -7.8,  999.0,  999.0,  999.0,   -5.5,   -4.9,   -5.9,   -5.5,   -5.5,   -5.6,   -6.0,   -5.6,   -4.6,   -3.2,   -5.0,   -4.9,   -6.8,   -9.0,   -9.5,   -8.9,  999.0,  999.0,  999.0,  999.0,  999.0,  999.0,   -4.6,  999.0,   -5.6,   -5.4,   -5.2
1999/08/14 19:50,  999.0,   -8.5,  999.0,   -6.8,   -6.9,   -6.4,  999.0,   -5.4,   -5.6,   -5.5,   -6.5,   -6.9,   -6.6,   -5.3,  999.0,   -4.4,   -6.0,   -5.9,   -8.4,   -9.4,   -8.4,   -6.2,   -6.2,  999.0,  999.0,   -5.2,  999.0,   -4.7,  999.0,  999.0,   -3.9,   -3.9
1999/08/14 20:00,  999.0,  999.0,  999.0,  999.0,  999.0,   -6.5,   -5.8,   -6.3,   -6.0,   -6.5,   -7.3,   -7.9,   -7.3,   -4.6,   -3.3,   -4.5,   -5.4,   -7.2,   -9.1,  999.0,  999.0,  999.0,  999.0,   -5.0,  999.0,  999.0,  999.0,   -4.9,  999.0,  999.0,   -4.6,  999.0
1999/08/14 20:10,  999.0,  999.0,  999.0,  999.0,   -7.8,   -6.0,   -4.6,   -4.2,   -5.1,   -6.1,   -7.9,   -9.3,   -8.0,   -5.6,   -4.7,   -4.8,   -5.9,   -8.4,   -9.5,  -10.3,  999.0,  999.0,  999.0,  999.0,  999.0,   -2.8,  999.0,  999.0,  999.0,  999.0,  999.0,  999.0
1999/08/14 20:20,  999.0,  999.0,  999.0,   -7.6,  999.0,   -6.1,   -5.2,   -5.2,  999.0,   -6.9,   -7.0,   -7.5,   -7.9,   -5.7,   -5.3,   -5.4,   -8.0,   -7.4,   -9.3,  -10.0,   -9.2,   -9.3,  999.0,  999.0,  999.0,  999.0,  999.0,  999.0,   -3.4,  999.0,  999.0,  999.0
1999/08/14 20:30,   -7.2,   -5.5,   -8.0,   -8.3,   -6.5,  999.0,   -4.8,   -5.6,   -6.7,   -7.0,   -6.8,   -6.7,   -7.1,  -12.9,  -10.4,  -12.4,  -13.0,   -9.8,  -10.4,  -11.2,  -10.1,   -9.2,  999.0,  999.0,   -4.1,   -4.9,  999.0,  999.0,  999.0,  999.0,  999.0,  999.0
1999/08/14 20:40,  999.0,   -9.5,   -9.6,   -9.2,  999.0,  999.0,   -6.5,   -5.6,   -5.8,   -5.9,   -7.0,   -7.0,   -7.5,   -7.6,   -7.4,   -4.0,  999.0,  999.0,   -1.5,  999.0,   -9.5,   -7.6,  999.0,  999.0,  999.0,  999.0,  999.0,  999.0,  999.0,   -0.8,    0.3,  999.0
1999/08/14 20:50,  999.0,  999.0,   -8.0,   -7.7,   -6.0,   -5.0,   -5.4,  999.0,   -5.4,   -7.3,   -7.5,   -7.6,   -6.4,   -6.5,   -6.6,   -6.4,  999.0,   -6.9,   -6.3,   -6.2,   -6.8,   -6.3,  999.0,  999.0,  999.0,  999.0,  999.0,  999.0,  999.0,  999.0,   -2.0,  999.0
1999/08/14 21:00,  999.0,  999.0,   -9.5,   -8.8,   -8.1,   -6.4,   -4.6,   -5.6,   -6.6,   -7.7,   -9.0,   -8.5,   -6.4,   -6.7,   -6.6,   -7.0,   -6.6,   -6.6,   -5.8,   -5.7,   -5.5,   -5.7,  999.0,  999.0,  999.0,   -1.9,  999.0,  999.0,  999.0,   -0.7,   -2.4,   -1.6
1999/08/14 21:10,   -7.7,  -11.3,   -8.0,   -7.3,   -7.3,   -7.2,   -7.2,   -5.5,   -6.8,   -8.0,   -7.8,   -7.8,   -6.8,   -6.3,   -6.3,   -6.9,   -6.2,   -4.5,   -4.6,   -4.7,   -4.8,   -5.5,   -5.1,   -3.0,  999.0,   -2.6,  999.0,  999.0,  999.0,  999.0,   -3.1,  999.0
1999/08/14 21:20,   -7.3,   -8.4,  999.0,   -7.4,  -10.6,  999.0,  999.0,  999.0,  999.0,   -7.6,   -6.8,   -7.3,   -6.5,   -6.6,   -7.2,  999.0,   -5.3,   -4.6,   -4.0,   -4.2,   -4.1,   -4.4,   -4.4,   -2.6,  999.0,  999.0,   -1.3,  999.0,  999.0,  999.0,  999.0,   -0.9
1999/08/14 21:30,   -7.9,   -8.3,  999.0,  999.0,  999.0,  999.0,   -5.3,  999.0,   -5.0,   -5.8,   -5.4,  999.0,   -6.7,   -6.9,   -7.4,   -6.7,   -6.2,   -6.1,  999.0,   -7.8,   -6.2,   -4.1,   -2.9,   -3.1,  999.0,  999.0,   -1.0,   -1.9,   -0.1,  999.0,  999.0,  999.0
1999/08/14 21:40,   -8.1,   -9.4,   -8.8,   -8.4,   -7.6,   -7.0,  999.0,   -4.7,  999.0,   -4.6,   -5.2,   -6.0,   -6.3,   -6.6,   -6.7,   -7.1,   -6.8,   -6.8,   -7.0,   -5.8,   -3.8,   -3.9,   -2.1,   -1.9,  999.0,  999.0,  999.0,   -1.1,  999.0,    1.7,  999.0,  999.0
1999/08/14 21:50,  999.0,   -6.0,   -9.7,   -8.1,   -7.5,   -7.4,   -5.2,   -5.9,   -4.5,   -4.6,  999.0,   -5.7,   -6.3,   -4.7,   -5.8,   -7.0,   -7.6,   -8.0,   -7.2,   -6.7,   -5.2,   -2.3,   -2.0,   -4.2,   -4.9,  999.0,  999.0,  999.0,    1.6,    2.2,  999.0,  999.0
1999/08/14 22:00,   -3.4,   -8.1,   -9.2,   -9.9,   -7.7,   -6.9,   -6.2,   -6.1,   -5.5,  999.0,   -4.6,   -5.7,   -6.6,   -5.8,   -6.9,   -8.8,   -9.4,   -9.3,   -7.7,   -5.9,   -4.6,   -2.3,   -1.3,   -3.8,   -5.7,  999.0,  999.0,   -1.3,    0.7,    2.4,  999.0,  999.0
1999/08/14 22:10,  999.0,   -9.8,  -10.1,  -10.8,   -8.7,   -6.8,   -5.4,   -5.7,   -3.3,   -4.3,   -4.0,   -4.9,   -4.9,   -4.7,   -6.1,   -9.0,   -7.9,   -8.4,   -8.5,   -6.0,   -4.7,   -3.9,  999.0,   -3.3,  999.0,  999.0,  999.0,  999.0,    1.1,    2.1,    2.2,    3.2
1999/08/14 22:20,  999.0,   -9.7,  -10.4,  -10.1,   -9.4,   -7.9,   -5.4,   -5.6,   -4.7,  999.0,   -2.0,   -4.6,   -4.6,   -4.3,   -6.3,   -8.2,   -9.7,  -10.9,  -10.9,   -7.2,   -5.7,   -4.3,  999.0,   -5.5,  999.0,  999.0,  999.0,  999.0,    0.1,    1.4,   -0.3,  999.0
1999/08/14 22:30,   -8.9,   -9.4,  -10.5,  999.0,  999.0,   -7.7,   -3.9,  999.0,  999.0,   -5.5,  999.0,  999.0,  999.0,   -4.1,   -4.9,   -7.6,  999.0,   -9.6,   -9.0,  999.0,  999.0,   -6.9,   -9.6,   -7.7,  999.0,   -5.7,   -2.6,   -0.7,  999.0,    1.6,  999.0,  999.0
1999/08/14 22:40,   -8.6,  -10.0,   -9.0,   -7.7,  999.0,   -6.9,   -6.3,   -6.3,   -5.9,   -5.4,   -5.1,   -4.4,   -4.1,   -3.7,   -4.0,   -6.4,   -5.5,  999.0,  999.0,   -9.6,   -8.2,  999.0,   -6.5,   -9.3,  999.0,   -8.4,  999.0,    0.7,    3.1,  999.0,    2.5,    2.9
1999/08/14 22:50,   -7.7,   -8.3,   -7.9,   -5.5,   -6.4,   -5.9,   -6.1,   -6.5,   -6.2,   -5.9,   -5.9,   -5.2,   -3.9,   -3.3,   -3.6,   -5.8,   -6.4,   -7.1,  999.0,  999.0,  999.0,   -5.7,   -6.3,  999.0,  999.0,  999.0,  999.0,  999.0,  999.0,  999.0,    2.0,    3.9
1999/08/14 23:00,  999.0,   -9.0,  999.0,   -6.4,   -8.7,   -5.9,   -5.8,   -5.8,   -6.4,   -5.7,   -5.3,   -5.4,   -5.5,   -3.7,   -2.9,   -4.8,   -6.2,   -7.0,  999.0,  999.0,  999.0,   -6.6,   -7.3,  999.0,  999.0,  999.0,  999.0,  999.0,    1.5,  999.0,    2.8,    5.2
1999/08/14 23:10,   -7.8,  999.0,   -8.5,   -7.2,   -6.5,  999.0,   -4.0,   -4.3,   -5.2,   -5.9,   -5.5,   -5.7,   -5.4,   -4.0,   -3.4,   -3.9,   -6.4,  999.0,   -9.0,  999.0,  999.0,  999.0,  999.0,  999.0,  999.0,  999.0,  999.0,  999.0,   -0.1,  999.0,    1.5,    3.8
1999/08/14 23:20,   -7.1,   -7.8,   -7.8,   -6.9,   -5.9,   -5.2,   -5.1,   -5.3,   -5.0,   -5.8,   -6.0,   -6.1,   -5.4,   -4.3,   -4.2,  999.0,  999.0,  999.0,  999.0,  999.0,  999.0,  999.0,  999.0,  999.0,  999.0,  999.0,  999.0,  999.0,  999.0,  999.0,    1.6,    2.3
1999/08/14 23:30,   -7.3,   -8.2,   -8.3,   -7.7,   -6.3,   -5.8,   -5.1,   -5.6,   -5.5,   -6.4,   -6.7,   -6.3,   -5.8,   -6.9,   -7.0,   -6.6,   -5.9,   -6.9,   -8.6,  -10.1,  999.0,  999.0,  999.0,  999.0,  999.0,  999.0,    0.5,    0.3,  999.0,  999.0,  999.0,    1.3
1999/08/14 23:40,   -6.8,   -8.5,   -8.4,   -7.6,   -7.1,   -6.0,   -4.9,   -5.9,   -6.8,   -7.4,   -7.8,   -6.3,   -7.3,   -8.0,   -6.1,   -6.3,   -7.1,  999.0,  999.0,  999.0,  -10.6,  999.0,  999.0,  999.0,  999.0,  999.0,  999.0,  999.0,  999.0,  999.0,  999.0,    1.1
1999/08/14 23:50,   -6.4,   -8.0,   -6.7,   -6.8,   -6.9,   -6.9,   -7.0,   -6.1,   -5.7,   -6.7,   -6.2,   -6.4,   -7.1,   -5.6,   -5.1,   -5.8,   -6.9,  999.0,   -7.2,  999.0,   -9.5,  -10.4,  999.0,  999.0,  999.0,  999.0,  999.0,  999.0,  999.0,  999.0,    1.0,    1.4
